星链-37095(STARLINK-37095)

导读

STARLINK-37095(NORAD编号68237)是美国SpaceX公司星链星座中的低轨通信卫星,属于星链全球互联网星座计划的一部分,旨在通过近地轨道卫星组网为全球提供高速低延迟互联网服务。该卫星运行在近地点约442公里、远地点约448公里的近圆轨道上,轨道倾角97.38度,轨道周期约93.5分钟,每日绕地球运行约15.4圈。作为星链持续扩容的组网卫星之一,它依托SpaceX可复用火箭发射部署,目前处于在轨运行状态,支撑星链网络覆盖扩展,服务包括偏远地区通信、移动互联等场景,同时也成为全球规模最大低轨卫星互联网星座的组成单元。

基本信息
目录编号:
68237
目录名称:
STARLINK-37095
国际标识:
2026-054F
轨道中心:
EARTH
卫星名称:
星链-37095
卫星全名:
星链-37095(STARLINK-37095)
卫星状态:
在轨 (已飞行85 天)
发射日期:
2026-03-17 UTC
国别 :
美国 (US)
星等 :
--
轨道信息
数据来源 国际轨道数据
星历时间: 2026-06-10T05:14:37+0800
14小时前
查看轨道信息
半长轴: 6840.894km
偏心率: 0.0001438
轨道倾角: 53.159°
近地点辐角 77.835°
升交点赤经 221.742°
平近点角 282.282°
近地点: 461.773km
远地点: 463.741km
周期: 93.849分钟
每日圈数: 15.343822
详细信息
固有亮度:
5
最大亮度:
2.5
卫星平台:
Starlink V1.0
覆盖范围:
全球
运营商:
太空探索技术公司
运营商所在国:
美国
制造商(研发单位):
太空探索技术公司
制造商所在国:
美国
使用方式:
暂无
卫星简介
Starlink 计划是 SpaceX 推出的全球卫星互联网项目,通过发射低轨道卫星,为全球尤其是偏远地区提供高速、低延迟的互联网服务。自 2019 年起,Starlink 已部署数千颗卫星,旨在缩小全球数字鸿沟,推动互联网普及。该项目还为军事、航空等行业提供通信支持,带来广泛经济效益。
2D轨道图
3D轨道图
轨道高度分析图
轨道倾角分析图
轨道综合分析图
查看轨道综合分析图